EW4719 Weather Reports


Display with metric or nautical units.
time (UTC)temp
F
wind
direction
speed
MPH
gust
MPH
rain 1hr
in
rain 24hr
in
rain mn
in
humidity
%
barometer
mb
20260831230129 52 276 6.0 14.0 0.00 0.00 0.00 86 1014.1
20260831224500 52 236 4.0 11.0 0.00 0.00 0.00 86 1014.1
20260831223121 52 325 5.0 12.0 0.00 0.00 0.00 86 1014.1
20260831221605 53 263 5.0 11.0 0.00 0.00 0.00 84 1014.1
20260831220120 53 329 5.0 13.0 0.00 0.00 0.00 84 1014.1
20260831214600 53 243 6.0 16.0 0.00 0.00 0.00 83 1014.1
20260831213114 54 229 5.0 14.0 0.00 0.00 0.00 81 1014.0
20260831211606 54 256 6.0 16.0 0.00 0.00 0.00 79 1013.9
20260831210133 54 307 5.0 13.0 0.00 0.00 0.00 78 1013.7
20260831204600 54 232 5.0 14.0 0.00 0.00 0.00 78 1013.6
20260831203138 54 263 6.0 16.0 0.00 0.00 0.00 77 1013.4
20260831201525 55 264 6.0 14.0 0.00 0.00 0.00 77 1013.3
20260831200052 55 313 5.0 16.0 0.00 0.00 0.00 77 1013.2
20260831194600 55 274 7.0 14.0 0.00 0.00 0.00 77 1013.0
20260831193056 55 263 7.0 15.0 0.00 0.00 0.00 77 1012.8
20260831191603 55 248 6.0 15.0 0.00 0.00 0.00 77 1012.6
20260831190133 56 252 6.0 13.0 0.00 0.00 0.00 76 1012.2
20260831184522 56 322 6.0 12.0 0.00 0.00 0.00 76 1012.2
20260831183049 56 272 4.0 14.0 0.00 0.00 0.00 76 1012.1
20260831181547 56 240 5.0 13.0 0.00 0.00 0.00 77 1011.8
20260831180046 57 229 6.0 15.0 0.00 0.00 0.00 77 1011.7
20260831174539 58 327 4.0 14.0 0.00 0.00 0.00 76 1011.6
20260831173050 58 291 4.0 10.0 0.00 0.00 0.00 76 1011.3
20260831171548 59 292 7.0 15.0 0.00 0.00 0.00 74 1011.3
20260831164608 60 312 7.0 16.0 0.00 0.02 0.00 74 1011.0
20260831163113 62 237 7.0 17.0 0.00 0.02 0.00 72 1010.7
20260831161554 62 288 8.0 17.0 0.00 0.02 0.00 71 1010.5
20260831160104 62 264 6.0 17.0 0.00 0.02 0.00 71 1010.3
20260831154538 63 233 8.0 18.0 0.00 0.23 0.00 70 1010.1
20260831153045 64 225 5.0 17.0 0.00 0.23 0.00 70 1009.9
20260831151546 65 243 6.0 15.0 0.00 0.23 0.00 70 1009.8
20260831150058 65 263 4.0 15.0 0.00 0.23 0.00 73 1009.4
20260831144547 65 180 8.0 16.0 0.00 0.23 0.00 71 1009.3
20260831143104 63 220 6.0 17.0 0.00 0.23 0.00 75 1009.0
20260831141558 64 236 6.0 18.0 0.00 0.23 0.00 73 1009.0
20260831140107 64 238 5.0 14.0 0.00 0.23 0.00 75 1008.7
20260831134552 65 280 6.0 19.0 0.00 0.23 0.00 71 1008.6
20260831133112 66 227 7.0 16.0 0.00 0.23 0.00 71 1008.5
20260831131550 65 259 3.0 12.0 0.00 0.23 0.00 75 1008.3
20260831130057 64 294 3.0 11.0 0.00 0.23 0.00 76 1008.3
20260831124600 64 246 4.0 10.0 0.00 0.23 0.00 76 1008.2
20260831123114 63 236 4.0 15.0 0.00 0.23 0.00 76 1008.0
20260831121510 64 299 7.0 15.0 0.00 0.23 0.00 74 1008.0
20260831120106 64 265 6.0 16.0 0.00 0.23 0.00 76 1007.8
20260831114539 64 292 7.0 14.0 0.00 0.30 0.00 74 1007.7
20260831113037 63 272 6.0 12.0 0.00 0.30 0.00 78 1007.3
20260831111516 64 222 6.0 12.0 0.00 0.30 0.00 76 1007.2
20260831110133 64 325 5.0 14.0 0.00 0.30 0.00 78 1007.1
20260831104607 62 236 4.0 12.0 0.00 0.30 0.00 81 1006.9
20260831103135 63 258 4.0 13.0 0.00 0.30 0.00 81 1006.8
20260831101558 62 297 6.0 14.0 0.00 0.30 0.00 85 1006.7
20260831100056 61 258 3.0 10.0 0.00 0.30 0.00 88 1006.6
20260831094549 59 240 4.0 10.0 0.00 0.33 0.00 91 1006.5
20260831093046 59 285 3.0 10.0 0.00 0.33 0.00 91 1006.3
20260831091533 58 248 3.0 9.0 0.00 0.33 0.00 92 1006.1
20260831090012 58 238 3.0 8.0 0.00 0.33 0.00 92 1005.9
20260831084512 58 242 3.0 10.0 0.00 0.35 0.00 93 1005.7
20260831083002 58 311 4.0 9.0 0.00 0.35 0.00 93 1005.6
20260831081510 57 275 3.0 10.0 0.00 0.35 0.00 94 1005.5
20260831080012 57 248 4.0 10.0 0.00 0.35 0.00 95 1005.2
20260831074505 56 266 4.0 9.0 0.00 0.35 0.00 95 1005.1
20260831073116 56 224 3.0 11.0 0.00 0.35 0.00 96 1004.9
20260831071510 56 284 3.0 11.0 0.00 0.35 0.00 96 1004.7
20260831070123 56 267 4.0 11.0 0.00 0.35 0.00 96 1004.6
20260831064502 55 302 3.0 8.0 0.00 0.35 0.00 96 1004.4
20260831063127 55 306 2.0 7.0 0.00 0.35 0.00 96 1004.3
20260831061544 55 242 4.0 10.0 0.00 0.35 0.00 96 1004.1
20260831060017 55 274 2.0 5.0 0.00 0.35 0.00 96 1004.0
20260831054531 55 260 2.0 6.0 0.00 0.53 0.00 96 1003.9
20260831053043 55 248 1.0 6.0 0.00 0.53 0.00 96 1003.7
20260831051537 55 259 1.0 6.0 0.00 0.53 0.00 96 1003.7
20260831050104 55 277 1.0 5.0 0.00 0.53 0.00 96 1003.4
20260831044559 55 236 2.0 4.0 0.00 0.54 0.00 96 1003.2
20260831043111 55 320 2.0 4.0 0.00 0.54 0.00 96 1003.2
20260831041603 55 292 1.0 4.0 0.00 0.54 0.00 96 1003.1
20260831040055 55 270 1.0 4.0 0.00 0.54 0.00 96 1003.0
20260831034553 55 262 1.0 4.0 0.00 0.59 0.00 96 1002.9
20260831033108 55 267 0.0 3.0 0.00 0.59 0.00 96 1002.8
20260831031559 55 259 1.0 3.0 0.00 0.59 0.00 96 1002.8
20260831030024 55 259 0.0 3.0 0.00 0.59 0.00 96 1002.7
20260831024548 55 244 0.0 3.0 0.00 0.61 0.00 96 1002.8
20260831023014 55 228 1.0 6.0 0.00 0.61 0.00 96 1002.7
20260831021532 55 250 0.0 3.0 0.00 0.61 0.00 96 1002.6
20260831020013 55 267 0.0 2.0 0.00 0.61 0.00 96 1002.6
20260831014529 55 246 1.0 3.0 0.00 0.62 0.00 96 1002.5
20260831013010 55 296 0.0 4.0 0.00 0.62 0.00 96 1002.6
20260831011518 55 288 1.0 4.0 0.00 0.62 0.00 96 1002.6
20260831010150 55 292 2.0 3.0 0.00 0.62 0.00 96 1002.6
20260831004502 55 302 0.0 2.0 0.00 0.62 0.00 96 1002.4
20260831003106 55 302 1.0 3.0 0.00 0.62 0.00 96 1002.4
20260831001601 55 298 0.0 0.0 0.00 0.62 0.00 96 1002.4
20260831000109 55 298 0.0 0.0 0.00 0.62 0.00 96 1002.3
20260830234613 56 298 0.0 0.0 0.00 0.62 0.00 96 1002.3
20260830233109 56 298 0.0 3.0 0.00 0.62 0.00 96 1002.4
20260830231606 56 288 1.0 4.0 0.00 0.62 0.00 96 1002.4